Wind_Speed
6 4 5 4 3 4 3 4 2 5 3 2 18 5 7 5 2 2 21 23 24 20 18 15 15 14 15 16 18 20 19 20 24 30 23 22 21 22 17 17 17 20 21 20 21 19 18 18 17
3 5 4 2 4 3 3 3 5 3 8 23 16 11 7 4 4 17 23 23 22 20 18 17 14 14 15 15 17 19 22 25 29 28 23 25 23 17 16 17 17 19 18 18 18 16 14 13 13
3 5 2 2 3 3 3 1 5 12 8 6 7 11 4 3 12 28 20 26 22 21 19 17 16 15 15 16 16 18 20 25 24 24 24 18 16 16 17 16 15 17 18 17 17 17 17 15 16
2 3 2 3 2 2 4 5 6 5 10 7 18 9 8 5 26 16 26 24 23 21 20 18 16 15 15 16 17 18 19 20 19 18 16 16 15 17 16 15 14 14 14 14 16 15 16 16 15
3 3 3 2 4 3 5 11 5 2 5 10 8 6 8 12 11 22 26 24 23 21 20 18 16 14 14 15 17 18 17 17 17 16 15 15 14 13 14 13 12 11 12 12 14 14 15 13 12
3 2 4 4 4 5 4 8 4 4 7 12 14 9 4 10 19 25 23 23 21 20 18 17 15 13 15 16 17 19 20 17 13 14 14 14 14 13 13 12 11 9 9 11 14 15 14 13 15
3 2 2 1 4 3 4 6 4 5 12 5 12 5 10 18 21 24 23 21 21 18 18 16 15 15 15 16 17 19 19 17 14 13 13 14 14 12 12 12 11 11 13 16 15 14 13 14 15
4 2 4 3 2 3 5 3 10 5 4 15 11 7 10 22 23 24 22 22 20 19 17 16 16 17 17 16 16 17 17 16 15 13 13 14 13 13 13 13 13 14 17 17 14 11 12 12 12
5 4 1 1 1 3 8 4 11 1 13 1 1 22 23 26 24 23 22 21 20 20 17 17 17 19 18 17 16 14 15 15 15 13 13 15 14 15 14 14 14 16 16 14 11 11 11 12 13
3 2 4 2 2 4 7 1 7 4 9 5 18 23 25 26 24 23 25 25 23 22 20 18 19 19 19 18 17 16 15 15 16 15 15 16 15 15 15 15 16 16 14 12 9 8 7 8 10
2 0 2 7 4 2 3 5 4 14 3 10 30 30 28 26 24 21 23 23 24 23 22 22 20 20 19 20 18 17 17 16 16 15 16 16 17 17 16 16 18 16 12 9 6 4 4 7 8
2 3 3 3 5 1 2 3 1 16 4 20 29 29 29 27 23 21 24 22 22 23 22 22 20 20 20 19 18 16 16 16 15 15 16 17 19 19 19 19 17 15 11 8 5 4 6 8 8
2 7 4 5 6 6 7 3 4 21 1 23 28 29 27 26 21 19 21 21 22 23 22 22 22 21 20 18 17 17 17 17 16 16 15 17 19 22 21 20 16 14 10 7 6 4 5 6 6
11 13 6 3 7 7 11 7 10 12 16 25 29 29 27 27 24 22 21 22 23 23 22 22 22 21 19 18 18 17 18 18 18 16 16 17 20 22 21 18 15 12 10 9 7 3 1 2 3
16 6 7 7 4 5 13 3 4 17 24 30 30 30 28 27 26 24 23 20 21 24 24 22 20 21 20 18 17 18 18 19 20 17 18 17 20 25 22 16 13 11 10 10 7 2 1 2 3
2 3 3 3 3 6 3 6 5 26 30 27 30 31 30 28 27 24 25 23 22 23 22 19 20 20 19 17 15 14 17 21 21 18 20 19 23 25 21 16 12 11 9 9 6 2 1 1 3
1 3 3 5 11 3 8 5 4 29 26 26 27 29 31 29 28 28 26 25 24 22 21 20 18 18 20 18 19 14 14 18 21 21 21 21 24 25 20 15 12 10 9 8 5 3 1 2 4
2 2 1 6 8 14 8 12 5 24 27 26 27 30 30 32 32 30 28 27 26 24 21 20 19 16 17 20 19 18 16 16 21 22 23 23 24 23 19 16 14 11 11 8 4 3 2 3 6
2 3 4 5 5 7 15 11 11 21 21 22 27 28 32 36 33 31 30 29 29 29 27 23 22 20 19 20 22 21 19 18 18 23 24 26 24 22 19 17 14 11 12 8 4 3 4 5 9
3 2 4 5 2 8 7 14 9 22 30 33 31 31 33 36 35 35 34 34 32 31 30 27 24 22 22 21 22 20 18 17 17 17 24 26 25 21 17 14 12 12 10 7 5 6 5 7 9
3 1 3 4 7 3 1 5 8 14 21 24 27 32 33 40 41 38 38 38 36 35 34 30 26 22 25 25 22 22 21 19 19 21 22 26 26 21 17 15 14 12 13 10 9 9 8 8 7
2 5 3 5 4 2 3 4 4 7 18 17 29 32 35 38 42 42 41 41 42 38 36 33 29 25 25 29 26 26 23 23 21 21 23 25 25 22 20 19 17 16 15 11 10 10 12 12 7
6 4 5 3 4 1 2 2 6 6 11 18 26 35 40 46 46 47 45 45 44 42 40 36 32 28 27 31 30 30 25 21 17 17 19 23 25 23 23 20 19 19 17 15 12 12 11 11 9
5 1 5 4 3 1 6 6 5 6 13 17 26 37 43 45 49 50 48 45 46 45 43 41 37 32 29 31 33 33 30 24 23 21 20 21 24 24 24 21 19 19 19 18 14 12 12 12 12
11 6 3 3 0 5 2 0 7 6 5 8 18 35 42 42 41 48 50 49 50 50 48 45 41 37 32 32 34 35 30 27 26 25 23 23 23 27 26 24 22 21 18 19 17 16 15 14 15
5 4 4 3 3 5 5 6 5 7 14 20 24 30 34 38 44 49 54 53 52 53 51 49 45 42 38 35 35 38 34 33 30 28 24 24 25 22 24 27 26 23 19 19 19 19 19 19 20
5 3 2 2 2 2 4 8 8 7 10 14 19 16 29 39 44 52 55 56 52 55 54 52 48 44 42 38 36 39 37 38 35 30 27 24 21 21 22 24 24 26 25 21 20 23 22 23 23
3 3 3 3 2 4 5 5 5 10 13 20 24 22 23 33 42 45 50 56 55 53 55 52 48 45 43 41 38 38 40 39 37 33 30 27 25 23 24 23 23 22 25 26 25 21 18 17 17
5 4 3 3 4 4 3 6 5 5 9 20 25 31 33 24 39 44 48 53 56 53 53 55 51 48 47 43 40 39 42 43 40 38 34 29 27 24 25 23 23 22 19 22 22 22 20 19 19
4 4 4 4 6 2 2 6 10 8 18 24 34 37 40 23 29 37 38 39 46 51 51 54 54 51 47 44 42 39 42 43 42 41 37 33 31 27 23 23 23 23 22 24 26 26 24 21 21
Wind_Direction
135 96 80 132 63 66 351 1 85 95 78 101 149 126 119 49 68 182 146 162 162 157 153 155 146 142 138 126 114 105 102 111 117 132 129 125 126 126 125 118 116 115 107 107 105 101 100 97 89
91 43 73 87 74 57 306 328 81 50 115 115 95 102 56 73 86 143 149 157 163 162 158 157 149 147 146 139 128 119 104 119 120 125 126 117 120 121 120 119 118 112 113 111 105 96 96 93 86
79 50 39 89 107 134 168 38 105 124 127 119 109 80 71 98 130 144 148 154 157 157 157 153 147 147 148 149 140 132 120 121 124 128 129 120 123 123 123 124 116 117 117 112 99 87 88 87 77
33 39 26 64 70 57 125 131 119 123 92 87 112 83 79 152 140 148 149 154 157 155 153 156 149 146 145 150 149 142 136 130 134 138 138 133 130 125 122 119 122 122 117 105 96 88 90 82 67
12 336 50 51 46 69 98 146 132 55 76 114 117 109 97 152 156 152 150 157 158 155 159 158 156 152 152 148 154 148 142 144 143 141 139 137 126 122 124 127 126 123 116 109 100 96 89 77 61
321 5 43 39 54 47 75 135 80 71 109 108 100 94 81 154 158 154 156 158 159 159 159 158 160 160 158 157 158 156 151 156 150 143 138 129 123 124 127 130 133 129 137 121 107 98 89 81 59
84 49 84 61 86 57 121 123 74 122 113 79 122 93 134 155 159 160 162 160 157 161 162 162 163 161 160 161 163 159 164 170 167 157 142 128 126 126 131 128 125 130 122 123 114 101 85 67 51
80 84 44 41 25 89 132 93 124 108 57 133 90 151 156 164 164 163 165 165 164 168 167 164 165 162 162 164 162 162 164 170 165 158 146 138 140 140 133 126 125 123 125 122 115 96 74 60 46
49 55 39 321 11 99 133 122 167 158 143 105 288 154 160 157 160 165 168 170 171 170 168 165 166 163 164 162 166 167 168 170 168 160 153 156 157 150 139 133 132 131 132 129 115 90 66 49 47
89 123 184 65 55 44 346 157 161 125 158 79 120 145 156 160 164 170 172 173 174 175 172 168 167 169 167 167 170 168 171 164 166 162 161 164 161 152 148 140 140 141 140 130 113 86 51 23 15
30 268 78 32 207 21 15 111 143 155 240 177 153 157 164 168 172 177 179 177 175 175 175 173 174 174 176 174 174 175 172 169 166 162 161 167 162 158 147 146 144 144 137 132 119 77 24 13 12
182 131 70 46 59 33 56 3 212 172 267 180 162 161 166 172 177 179 182 180 176 179 178 175 175 178 180 179 173 177 174 169 168 165 167 165 163 152 147 145 146 143 146 148 125 80 51 40 36
175 103 70 93 71 34 351 233 223 211 39 174 166 169 174 176 175 175 178 180 182 182 179 177 178 179 182 184 182 184 182 178 174 170 168 165 164 156 152 152 153 155 157 153 135 98 51 35 40
113 98 120 160 253 336 342 300 201 206 189 177 177 180 182 184 179 175 178 184 187 182 181 180 180 182 187 188 190 190 191 188 181 176 174 170 168 167 160 160 160 161 165 167 161 154 91 44 14
133 101 87 26 6 338 336 296 172 174 181 177 187 186 192 194 188 185 180 180 176 176 179 180 180 181 183 185 188 193 193 192 191 187 180 177 175 168 168 167 165 167 170 179 183 189 15 352 328
48 140 50 270 133 275 255 276 189 172 168 175 189 192 198 199 199 193 192 187 182 180 182 181 182 185 183 187 186 191 199 200 198 192 185 181 173 172 175 174 173 178 174 182 198 239 227 210 296
51 98 77 309 208 290 228 284 187 171 172 181 191 197 200 207 210 206 201 199 191 194 191 189 192 189 190 188 193 199 201 200 195 191 189 185 181 181 183 187 189 188 185 197 210 249 283 328 339
328 72 121 225 202 218 245 253 195 183 180 187 194 202 206 210 214 212 209 206 204 200 199 193 189 188 187 191 196 201 201 200 198 194 190 185 185 191 196 200 200 200 201 207 237 253 295 314 330
221 208 207 254 217 179 222 231 185 193 199 196 196 202 211 216 217 218 216 212 211 210 206 201 199 191 194 190 192 199 200 201 197 196 193 186 186 191 196 205 202 203 200 213 272 260 283 305 331
358 360 317 297 190 197 250 232 181 191 205 205 199 203 208 218 220 221 221 218 216 215 211 206 205 202 197 197 196 198 199 199 198 193 193 194 194 199 205 201 200 203 211 231 264 254 294 315 333
352 202 267 278 317 314 174 287 184 211 209 213 218 217 214 215 218 221 220 221 220 219 216 210 209 206 206 202 202 204 200 204 203 203 196 199 202 209 211 209 205 211 216 245 268 261 287 311 316
346 198 243 308 40 282 61 284 243 197 210 209 217 216 220 219 222 223 222 221 222 222 220 215 214 211 211 209 210 212 211 207 203 205 203 203 208 210 207 208 209 218 222 247 263 265 289 293 294
243 299 259 243 205 116 287 121 273 130 212 224 219 217 217 223 222 222 221 223 223 222 220 218 216 215 214 211 214 214 212 207 212 208 210 209 207 206 202 210 221 226 232 249 256 266 284 284 269
277 335 27 58 104 250 227 172 267 179 216 223 225 223 219 216 221 225 225 224 223 223 221 219 217 215 214 212 212 214 213 210 204 209 210 212 211 211 215 222 229 230 239 249 255 265 278 284 277
26 43 357 344 258 224 212 175 231 243 245 234 221 223 223 218 216 218 222 221 222 220 222 220 218 217 216 214 214 213 217 217 216 213 217 220 223 224 224 226 233 240 249 241 249 262 273 282 284
304 124 139 263 234 268 279 248 251 227 271 280 257 256 235 216 214 216 221 223 221 221 222 222 220 219 218 218 219 220 225 222 220 219 224 226 229 234 233 235 240 243 250 249 255 270 274 277 279
314 36 282 168 340 64 247 290 304 290 315 331 312 292 239 220 212 215 218 222 222 222 222 222 222 222 222 221 222 220 222 222 222 223 223 224 228 234 237 239 245 246 248 253 262 272 271 273 275
117 247 5 10 278 285 294 281 243 327 333 334 326 315 282 246 215 212 212 218 222 224 224 225 224 223 224 223 224 224 221 223 226 226 226 227 229 238 241 246 248 252 251 254 260 262 272 276 277
350 21 21 124 134 198 303 270 231 340 327 324 317 313 311 277 221 210 210 217 222 221 223 226 226 225 225 226 226 225 223 224 227 227 229 231 233 236 239 247 251 252 248 251 248 258 267 274 280
187 105 102 104 297 255 207 260 283 320 338 341 326 317 314 292 231 212 206 206 210 219 222 225 227 227 227 228 227 227 226 225 227 227 229 231 234 233 240 251 240 245 246 258 258 257 262 274 281
Height
1503 1504 1504 1505 1513 1513 1519 1512 1505 1510 1512 1513 1516 1519 1523 1526 1528 1538 1532 1536 1540 1543 1545 1548 1550 1551 1552 1552 1553 1553 1553 1553 1553 1556 1558 1560 1561 1563 1564 1564 1565 1565 1566 1567 1568 1569 1570 1571 1570
1504 1504 1505 1506 1517 1524 1523 1507 1509 1511 1513 1514 1518 1521 1524 1529 1528 1529 1533 1537 1542 1545 1547 1550 1552 1553 1554 1555 1556 1557 1557 1556 1558 1560 1562 1564 1564 1566 1567 1567 1569 1569 1570 1571 1572 1572 1573 1573 1574
1504 1504 1506 1507 1516 1521 1521 1509 1511 1513 1514 1515 1520 1523 1526 1530 1530 1532 1535 1539 1543 1546 1549 1552 1554 1554 1556 1557 1559 1560 1561 1561 1563 1564 1565 1567 1568 1570 1570 1571 1572 1571 1572 1573 1574 1575 1575 1577 1576
1505 1506 1508 1512 1514 1509 1510 1511 1511 1513 1516 1516 1519 1525 1529 1531 1532 1535 1537 1541 1544 1548 1551 1553 1555 1556 1558 1559 1561 1562 1564 1565 1566 1568 1571 1572 1572 1574 1573 1573 1574 1574 1575 1576 1576 1578 1579 1579 1578
1507 1508 1511 1510 1511 1509 1509 1512 1513 1514 1516 1518 1518 1527 1531 1535 1536 1537 1540 1544 1546 1549 1552 1555 1557 1558 1559 1561 1563 1565 1566 1567 1568 1569 1572 1573 1574 1575 1576 1576 1576 1576 1577 1578 1579 1580 1580 1581 1581
1508 1510 1519 1526 1517 1514 1515 1516 1517 1517 1519 1521 1523 1527 1534 1536 1538 1540 1543 1546 1549 1551 1554 1557 1559 1560 1561 1563 1565 1567 1568 1569 1571 1572 1573 1575 1576 1577 1578 1578 1579 1579 1581 1581 1582 1583 1584 1584 1584
1511 1513 1524 1522 1520 1519 1519 1520 1521 1522 1522 1524 1525 1530 1536 1538 1540 1542 1545 1549 1551 1554 1556 1558 1560 1562 1564 1565 1566 1568 1570 1572 1573 1574 1576 1577 1578 1579 1580 1581 1581 1582 1583 1584 1585 1586 1587 1586 1587
1510 1514 1524 1523 1524 1523 1520 1521 1523 1526 1525 1526 1527 1531 1536 1537 1540 1544 1548 1551 1554 1556 1557 1559 1561 1563 1565 1567 1569 1570 1572 1574 1575 1577 1578 1579 1580 1582 1583 1584 1585 1585 1587 1588 1588 1589 1589 1590 1589
1510 1520 1529 1524 1523 1524 1520 1521 1524 1525 1527 1528 1529 1528 1532 1536 1542 1546 1549 1552 1554 1556 1558 1560 1562 1564 1566 1568 1570 1572 1574 1575 1577 1578 1580 1581 1582 1584 1585 1586 1587 1588 1590 1591 1591 1592 1592 1592 1592
1512 1521 1522 1520 1522 1524 1523 1523 1525 1527 1528 1530 1530 1533 1535 1538 1542 1545 1547 1550 1554 1556 1558 1561 1563 1565 1567 1569 1571 1573 1575 1576 1577 1579 1581 1583 1584 1586 1587 1589 1590 1591 1593 1594 1594 1595 1595 1595 1594
1516 1520 1517 1521 1521 1523 1523 1523 1525 1528 1530 1528 1528 1532 1535 1539 1542 1545 1548 1550 1553 1556 1559 1561 1564 1566 1568 1570 1572 1574 1575 1577 1578 1580 1582 1584 1586 1587 1589 1591 1593 1595 1596 1597 1597 1598 1597 1597 1597
1517 1519 1520 1522 1523 1523 1523 1524 1525 1527 1526 1528 1530 1533 1536 1539 1542 1544 1547 1550 1553 1556 1559 1562 1565 1567 1569 1571 1573 1575 1576 1578 1580 1582 1583 1585 1587 1589 1591 1593 1595 1597 1598 1599 1600 1600 1600 1599 1599
1516 1520 1520 1520 1520 1521 1523 1524 1525 1525 1526 1530 1533 1534 1537 1540 1542 1545 1548 1551 1553 1556 1559 1562 1564 1567 1569 1571 1574 1576 1578 1579 1581 1583 1585 1587 1589 1591 1593 1595 1597 1599 1600 1601 1602 1602 1602 1601 1601
1515 1520 1518 1515 1515 1519 1519 1519 1521 1522 1526 1531 1534 1536 1537 1540 1542 1546 1549 1551 1553 1556 1559 1562 1564 1567 1569 1571 1573 1576 1578 1580 1581 1583 1586 1588 1590 1593 1595 1597 1599 1600 1601 1602 1603 1603 1603 1603 1603
1517 1520 1520 1520 1518 1518 1520 1519 1518 1521 1525 1530 1535 1536 1539 1541 1544 1545 1548 1551 1553 1556 1559 1561 1564 1567 1569 1572 1574 1576 1578 1580 1581 1584 1586 1588 1590 1593 1596 1598 1600 1601 1602 1603 1604 1604 1604 1603 1603
1519 1521 1530 1520 1521 1522 1524 1525 1516 1521 1523 1529 1533 1536 1538 1541 1542 1546 1548 1551 1554 1557 1559 1562 1564 1566 1569 1571 1574 1576 1577 1579 1582 1584 1586 1589 1591 1594 1596 1598 1600 1601 1602 1603 1604 1604 1604 1604 1604
1522 1534 1533 1527 1524 1523 1524 1523 1516 1519 1522 1528 1532 1534 1536 1539 1542 1544 1547 1550 1553 1556 1559 1561 1564 1566 1568 1571 1573 1575 1577 1578 1581 1584 1586 1589 1592 1594 1597 1598 1600 1601 1602 1603 1604 1604 1604 1605 1604
1533 1533 1528 1528 1522 1524 1523 1520 1518 1519 1520 1524 1529 1532 1535 1536 1538 1542 1545 1549 1552 1555 1558 1561 1562 1565 1568 1570 1573 1574 1576 1578 1580 1583 1586 1588 1591 1594 1597 1598 1600 1601 1603 1604 1604 1604 1605 1605 1604
1522 1527 1531 1521 1514 1520 1519 1513 1515 1519 1523 1524 1525 1528 1531 1532 1535 1540 1543 1546 1550 1553 1556 1559 1561 1564 1567 1568 1570 1573 1575 1578 1580 1582 1585 1588 1591 1594 1596 1598 1600 1601 1603 1604 1604 1604 1605 1604 1604
1519 1523 1527 1519 1512 1516 1511 1512 1510 1513 1512 1514 1517 1521 1524 1529 1531 1535 1539 1542 1545 1549 1553 1557 1559 1562 1564 1568 1570 1573 1576 1578 1580 1582 1584 1587 1590 1593 1595 1597 1599 1601 1603 1604 1604 1604 1605 1604 1604
1524 1525 1526 1526 1515 1508 1507 1515 1511 1509 1512 1516 1517 1518 1520 1522 1525 1529 1533 1537 1541 1545 1549 1553 1557 1560 1563 1566 1569 1572 1574 1577 1579 1581 1583 1586 1590 1592 1595 1597 1599 1601 1602 1604 1604 1605 1605 1605 1604
1529 1517 1518 1521 1526 1538 1511 1542 1515 1508 1508 1509 1510 1512 1514 1517 1520 1524 1527 1531 1535 1539 1545 1549 1554 1557 1560 1564 1566 1570 1572 1574 1576 1579 1582 1585 1588 1591 1594 1597 1599 1601 1602 1603 1604 1604 1605 1605 1605
1526 1515 1517 1516 1524 1526 1521 1534 1516 1506 1512 1505 1501 1502 1505 1507 1511 1515 1519 1524 1529 1535 1539 1545 1550 1554 1556 1560 1563 1567 1570 1573 1576 1579 1581 1583 1586 1589 1592 1595 1598 1600 1601 1602 1603 1603 1604 1604 1604
1516 1516 1520 1524 1531 1544 1524 1526 1520 1513 1497 1493 1493 1493 1493 1496 1500 1506 1511 1517 1523 1529 1535 1540 1544 1549 1553 1556 1560 1563 1567 1571 1574 1576 1579 1582 1585 1588 1590 1593 1595 1597 1599 1601 1602 1602 1602 1603 1603
1522 1534 1554 1547 1543 1545 1521 1526 1512 1489 1487 1487 1484 1484 1485 1489 1495 1498 1504 1508 1515 1521 1527 1534 1539 1543 1547 1552 1555 1559 1563 1567 1570 1574 1577 1580 1582 1585 1588 1590 1592 1594 1596 1598 1599 1600 1600 1601 1602
1531 1535 1558 1553 1559 1543 1525 1525 1503 1482 1479 1478 1478 1476 1477 1482 1484 1487 1493 1498 1505 1512 1519 1526 1532 1537 1542 1546 1550 1555 1559 1563 1566 1570 1573 1576 1579 1582 1585 1587 1589 1591 1594 1596 1597 1598 1598 1598 1599
1531 1542 1533 1543 1546 1553 1534 1509 1491 1479 1477 1474 1471 1470 1469 1470 1473 1475 1481 1487 1495 1503 1510 1518 1525 1531 1536 1540 1544 1549 1553 1557 1561 1566 1569 1572 1576 1578 1581 1584 1586 1588 1590 1593 1594 1595 1595 1595 1595
1531 1530 1544 1553 1552 1551 1539 1522 1514 1490 1485 1479 1472 1468 1465 1463 1465 1468 1473 1479 1485 1494 1502 1510 1517 1523 1528 1534 1538 1542 1547 1552 1557 1561 1565 1568 1572 1575 1577 1580 1583 1584 1587 1589 1590 1591 1592 1592 1592
1541 1539 1542 1548 1555 1557 1561 1534 1497 1492 1491 1485 1475 1468 1460 1456 1456 1460 1465 1471 1478 1486 1495 1502 1509 1516 1522 1527 1532 1537 1541 1546 1551 1555 1560 1564 1568 1570 1573 1576 1579 1581 1583 1584 1586 1587 1588 1588 1588
1533 1537 1547 1559 1556 1554 1552 1532 1489 1491 1488 1486 1477 1470 1460 1452 1452 1458 1462 1469 1476 1481 1489 1495 1502 1508 1514 1520 1525 1530 1535 1540 1544 1548 1553 1558 1562 1566 1568 1571 1574 1576 1578 1580 1581 1583 1583 1585 1584